Location: Devore Heights
(34.2372°N, 117.4156°W)
Time: 15:15:08
(UTC+00:00)

Tiros 1 despin weight - Pass Details

Date: 16 September 2024
Orbit: 573 x 615 km, 48.2° (Epoch: 04 October)

Event Time Altitude Azimuth Distance (km) Brightness Sun altitude
Exits shadow 10:22:44 14° 44° (NE) 1,738 ? -37.8°
Drops below altitude 10° 10:23:22 10° 46° (NE) 1,979 ? -37.7°
Sets 10:25:44 0° 50° (NE) 2,889 ? -37.3°
